TimePDT,TemperatureF,Dew PointF,Humidity,Sea Level PressureIn,VisibilityMPH,Wind Direction,Wind SpeedMPH,Gust SpeedMPH,PrecipitationIn,Events,Conditions,WindDirDegrees,DateUTC
12:15 AM,53.6,53.6,100,30.37,10.0,NW,6.9,-,N/A,,Overcast,320,2013-05-19 07:15:00
12:35 AM,53.6,53.6,100,30.37,10.0,NNW,5.8,-,N/A,,Overcast,330,2013-05-19 07:35:00
12:55 AM,53.6,51.8,94,30.37,10.0,NW,8.1,-,N/A,,Overcast,320,2013-05-19 07:55:00
1:15 AM,53.6,53.6,100,30.37,10.0,NW,6.9,-,N/A,,Overcast,320,2013-05-19 08:15:00
1:35 AM,55.4,53.6,94,30.37,10.0,NW,8.1,-,N/A,,Overcast,310,2013-05-19 08:35:00
1:55 AM,53.6,53.6,100,30.38,5.0,NNW,8.1,-,N/A,,Overcast,340,2013-05-19 08:55:00
2:15 AM,53.6,53.6,100,30.38,2.5,NNW,10.4,-,N/A,,Overcast,330,2013-05-19 09:15:00
2:35 AM,53.6,53.6,100,30.39,3.0,NNW,6.9,-,N/A,,Overcast,330,2013-05-19 09:35:00
2:55 AM,53.6,53.6,100,30.39,1.8,NNW,11.5,-,0.01,,Overcast,340,2013-05-19 09:55:00
3:15 AM,53.6,53.6,100,30.39,3.0,North,11.5,-,N/A,,Overcast,350,2013-05-19 10:15:00
3:35 AM,53.6,53.6,100,30.40,5.0,North,10.4,-,N/A,,Overcast,350,2013-05-19 10:35:00
3:55 AM,53.6,53.6,100,30.40,10.0,North,9.2,-,N/A,,Overcast,360,2013-05-19 10:55:00
4:15 AM,53.6,53.6,100,30.40,4.0,North,5.8,-,0.02,,Overcast,350,2013-05-19 11:15:00
4:35 AM,53.6,53.6,100,30.41,5.0,NNW,9.2,-,0.04,,Overcast,340,2013-05-19 11:35:00
5:15 AM,53.6,53.6,100,30.41,5.0,North,9.2,-,N/A,,Overcast,350,2013-05-19 12:15:00
5:35 AM,53.6,53.6,100,30.41,5.0,NNW,12.7,-,0.01,,Overcast,340,2013-05-19 12:35:00
5:55 AM,53.6,53.6,100,30.41,2.5,NNW,10.4,-,0.02,,Overcast,340,2013-05-19 12:55:00
6:15 AM,53.6,51.8,94,30.41,9.0,NNW,11.5,-,N/A,,Overcast,340,2013-05-19 13:15:00
6:35 AM,53.6,51.8,94,30.41,10.0,North,15.0,-,N/A,,Overcast,350,2013-05-19 13:35:00
6:55 AM,53.6,51.8,94,30.42,7.0,North,10.4,-,N/A,,Overcast,350,2013-05-19 13:55:00
7:15 AM,53.6,51.8,94,30.43,8.0,North,10.4,-,N/A,,Overcast,360,2013-05-19 14:15:00
7:55 AM,53.6,51.8,94,30.44,10.0,North,11.5,-,N/A,,Overcast,10,2013-05-19 14:55:00
8:15 AM,53.6,51.8,94,30.44,10.0,North,9.2,-,N/A,,Overcast,10,2013-05-19 15:15:00
8:35 AM,53.6,50.0,88,30.44,10.0,North,11.5,18.4,N/A,,Overcast,10,2013-05-19 15:35:00
8:55 AM,53.6,50.0,88,30.44,10.0,NNE,9.2,-,N/A,,Overcast,20,2013-05-19 15:55:00
9:15 AM,55.4,50.0,82,30.45,10.0,North,8.1,-,N/A,,Overcast,360,2013-05-19 16:15:00
9:35 AM,55.4,48.2,77,30.44,10.0,North,16.1,19.6,N/A,,Overcast,360,2013-05-19 16:35:00
9:55 AM,55.4,48.2,77,30.44,10.0,North,15.0,23.0,N/A,,Overcast,350,2013-05-19 16:55:00
10:15 AM,55.4,48.2,77,30.44,10.0,North,13.8,19.6,N/A,,Overcast,360,2013-05-19 17:15:00
10:35 AM,57.2,50.0,77,30.44,10.0,North,13.8,19.6,N/A,,Overcast,10,2013-05-19 17:35:00
10:55 AM,57.2,48.2,72,30.44,10.0,North,15.0,20.7,N/A,,Overcast,350,2013-05-19 17:55:00
11:15 AM,57.2,48.2,72,30.44,10.0,North,16.1,-,N/A,,Overcast,360,2013-05-19 18:15:00
11:35 AM,57.2,48.2,72,30.44,10.0,NNW,17.3,23.0,N/A,,Overcast,340,2013-05-19 18:35:00
12:15 PM,57.2,48.2,72,30.44,10.0,North,18.4,24.2,N/A,,Overcast,350,2013-05-19 19:15:00
12:35 PM,57.2,48.2,72,30.44,10.0,North,18.4,21.9,N/A,,Overcast,350,2013-05-19 19:35:00
1:15 PM,57.2,48.2,72,30.43,10.0,North,18.4,24.2,N/A,,Overcast,360,2013-05-19 20:15:00
1:35 PM,57.2,50.0,77,30.43,10.0,North,16.1,23.0,N/A,,Overcast,350,2013-05-19 20:35:00
1:55 PM,57.2,48.2,72,30.43,10.0,North,20.7,29.9,N/A,,Overcast,10,2013-05-19 20:55:00
2:15 PM,57.2,51.8,82,30.43,10.0,North,18.4,26.5,N/A,,Overcast,360,2013-05-19 21:15:00
2:35 PM,57.2,50.0,77,30.42,10.0,North,23.0,27.6,N/A,,Overcast,350,2013-05-19 21:35:00
2:55 PM,57.2,50.0,77,30.42,10.0,North,23.0,27.6,N/A,,Overcast,360,2013-05-19 21:55:00
3:15 PM,57.2,50.0,77,30.42,10.0,North,21.9,-,N/A,,Overcast,360,2013-05-19 22:15:00
3:35 PM,57.2,48.2,72,30.41,10.0,North,16.1,-,N/A,,Overcast,360,2013-05-19 22:35:00
3:55 PM,59.0,48.2,67,30.40,10.0,North,21.9,29.9,N/A,,Scattered Clouds,350,2013-05-19 22:55:00
4:15 PM,59.0,48.2,67,30.40,10.0,North,21.9,31.1,N/A,,Clear,350,2013-05-19 23:15:00
4:35 PM,59.0,50.0,72,30.39,10.0,North,25.3,29.9,N/A,,Clear,350,2013-05-19 23:35:00
4:55 PM,59.0,50.0,72,30.39,10.0,North,27.6,32.2,N/A,,Clear,350,2013-05-19 23:55:00
5:15 PM,57.2,48.2,72,30.38,10.0,North,25.3,32.2,N/A,,Clear,360,2013-05-20 00:15:00
5:35 PM,57.2,48.2,72,30.38,10.0,North,26.5,32.2,N/A,,Clear,10,2013-05-20 00:35:00
5:55 PM,57.2,48.2,72,30.37,10.0,North,27.6,34.5,N/A,,Clear,360,2013-05-20 00:55:00
6:15 PM,57.2,48.2,72,30.37,10.0,North,27.6,38.0,N/A,,Clear,360,2013-05-20 01:15:00
6:35 PM,55.4,48.2,77,30.36,10.0,North,23.0,35.7,N/A,,Clear,360,2013-05-20 01:35:00
6:55 PM,55.4,48.2,77,30.35,10.0,North,24.2,34.5,N/A,,Clear,10,2013-05-20 01:55:00
7:15 PM,55.4,48.2,77,30.35,10.0,North,24.2,31.1,N/A,,Clear,360,2013-05-20 02:15:00
7:35 PM,55.4,48.2,77,30.35,10.0,North,23.0,31.1,N/A,,Clear,360,2013-05-20 02:35:00
7:55 PM,55.4,48.2,77,30.35,10.0,North,24.2,31.1,N/A,,Clear,360,2013-05-20 02:55:00
8:15 PM,53.6,48.2,82,30.34,10.0,North,20.7,28.8,N/A,,Clear,360,2013-05-20 03:15:00
8:35 PM,53.6,48.2,82,30.35,10.0,North,19.6,27.6,N/A,,Clear,360,2013-05-20 03:35:00
9:15 PM,53.6,48.2,82,30.35,10.0,North,19.6,25.3,N/A,,Clear,10,2013-05-20 04:15:00
9:35 PM,53.6,48.2,82,30.35,10.0,North,15.0,-,N/A,,Clear,10,2013-05-20 04:35:00
9:55 PM,53.6,48.2,82,30.35,10.0,North,12.7,20.7,N/A,,Clear,10,2013-05-20 04:55:00
10:15 PM,51.8,48.2,88,30.35,10.0,North,9.2,-,N/A,,Clear,10,2013-05-20 05:15:00
10:35 PM,51.8,48.2,88,30.35,10.0,NNE,5.8,-,N/A,,Partly Cloudy,20,2013-05-20 05:35:00
10:55 PM,51.8,48.2,88,30.35,10.0,North,5.8,-,N/A,,Partly Cloudy,10,2013-05-20 05:55:00
11:15 PM,51.8,48.2,88,30.35,10.0,NNE,10.4,-,N/A,,Partly Cloudy,20,2013-05-20 06:15:00
11:35 PM,51.8,48.2,88,30.35,10.0,North,13.8,-,N/A,,Partly Cloudy,10,2013-05-20 06:35:00
11:55 PM,51.8,50.0,94,30.35,10.0,North,15.0,23.0,N/A,,Partly Cloudy,10,2013-05-20 06:55:00